Lid_Strength_Index
8 11 12 11 9 9 9 10 11 10 8 9 10 10 8 6 6 7 7 7 8 7 5 3 3 4 4 3 2 3 3 2 1 1 2 2 3 2 2 1 1 0 1 1
10 12 8 7 7 8 10 10 11 9 7 9 10 10 8 7 8 7 7 7 8 8 6 5 3 3 3 4 2 2 2 2 2 3 2 2 2 2 1 1 0 0 0 1
11 9 6 7 8 9 10 10 10 11 8 8 10 11 11 9 8 8 6 6 6 6 7 5 4 3 3 3 3 3 2 2 1 1 1 1 2 2 2 2 2 1 2 2
9 7 8 8 9 9 11 8 8 10 10 14 10 16 12 10 9 8 8 7 7 7 5 4 4 3 3 3 2 2 2 2 2 1 2 2 3 4 2 2 2 1 2 2
10 9 9 9 9 8 10 8 9 9 10 11 12 15 13 9 10 9 7 6 7 7 4 4 4 3 3 2 2 2 2 1 1 2 2 2 3 2 2 2 1 3 1 4
8 6 7 8 7 7 7 9 9 10 11 15 13 13 14 11 9 8 8 7 5 6 4 4 3 3 3 2 2 2 3 3 3 4 4 4 5 3 2 4 4 2 2 1
9 9 7 7 9 8 9 10 18 18 17 16 11 13 12 9 8 7 8 7 6 6 6 4 4 4 4 4 3 2 2 3 4 4 4 4 4 4 4 4 4 5 4 2
12 13 9 7 9 11 11 11 16 20 18 16 11 14 12 8 7 7 6 6 6 6 6 5 5 4 3 3 3 2 2 3 2 2 3 4 3 3 3 3 3 3 2 3
12 12 7 7 7 8 11 13 9 14 14 16 14 11 9 8 8 7 6 6 6 6 6 4 4 4 3 3 3 3 3 3 2 2 1 2 2 4 4 4 3 3 2 1
10 12 8 7 7 7 9 8 13 14 18 21 17 16 14 10 9 7 7 7 6 5 5 5 4 3 3 3 3 3 2 2 2 2 2 1 2 2 2 2 3 3 2 2
9 11 11 8 10 11 11 11 12 12 12 20 21 18 11 11 9 8 8 7 6 6 6 5 4 4 3 3 3 3 3 3 3 3 3 4 4 4 3 2 2 2 2 2
8 11 15 12 8 7 10 11 11 16 16 16 17 17 9 9 8 7 7 7 7 6 6 6 4 4 4 5 4 4 4 4 3 3 3 3 3 3 3 2 2 1 2 1
8 12 17 14 11 9 11 9 10 12 13 16 19 17 8 8 7 7 7 6 6 6 6 6 6 5 5 5 4 4 4 4 3 3 3 3 3 3 3 3 2 2 2 2
8 13 14 18 15 11 13 10 10 12 17 15 15 14 12 10 9 8 7 6 5 5 6 6 6 6 5 4 4 3 3 3 3 3 4 4 4 3 3 3 3 3 2 3
9 15 13 12 12 11 12 11 11 12 12 15 14 14 12 10 9 8 6 6 7 7 7 6 6 5 5 4 4 4 3 3 3 3 4 4 4 4 4 4 4 3 3 3
9 15 12 14 11 11 12 11 10 10 10 11 11 13 8 7 7 8 8 7 7 6 5 5 4 4 5 4 4 3 3 4 4 4 5 4 5 5 5 5 5 5 5 4
12 13 15 17 12 12 14 11 10 9 9 10 13 10 8 9 8 8 8 7 6 5 5 4 4 4 4 4 4 4 4 4 4 4 4 4 4 5 5 5 5 5 6 7
12 13 14 17 14 20 11 9 8 9 8 8 9 9 8 8 6 6 5 6 6 5 5 5 5 5 5 5 4 4 4 4 4 4 4 4 4 5 5 6 7 7 7 8
8 12 15 17 18 12 10 9 9 11 11 8 8 7 7 6 6 7 5 6 6 6 6 6 5 5 5 4 4 4 5 4 4 5 5 5 6 6 7 8 8 8 8 8
9 9 13 15 18 18 12 7 6 7 14 7 7 8 8 7 11 9 6 6 6 6 6 6 5 5 5 4 4 5 6 6 7 7 7 7 8 8 9 9 9 10 12 12
14 13 15 15 17 14 9 6 6 15 14 7 7 7 7 9 8 7 5 5 5 5 5 5 5 5 6 6 6 7 8 9 8 8 8 8 9 10 10 11 12 13 13 13
14 15 16 15 17 18 7 8 12 10 7 7 7 7 8 7 6 6 6 6 6 7 7 7 8 8 8 8 9 9 10 9 9 9 10 10 11 12 12 13 14 14 14 14
14 12 14 13 14 9 7 8 6 7 8 7 7 7 7 7 7 7 8 8 8 8 8 8 9 9 9 10 10 12 11 11 10 12 12 13 14 14 14 14 14 14 14 14
9 8 11 11 9 8 7 6 5 5 6 6 6 7 7 9 9 9 9 9 9 9 9 9 10 11 11 11 11 12 12 11 12 13 14 15 16 15 15 15 15 15 14 14
9 8 10 10 8 7 6 6 6 6 6 7 7 8 9 9 9 9 9 10 10 10 10 11 11 12 12 11 12 12 11 12 14 15 16 16 16 16 16 15 14 14 14 14
8 10 11 12 7 8 7 6 5 6 8 8 8 9 8 9 10 9 10 11 11 11 11 11 11 11 12 12 13 13 13 14 16 17 17 17 17 16 15 15 15 13 13 11